Regional Weather Roundup
Issued by NWS Charleston, WV

Home | Current Version | Previous Version | Graphics & Text | Print | Product List | Glossary On
Versions: 1 2 3 4 5 6 7 8 9 10 11 12 13 14 15 16 17 18 19 20 21 22 23 24 25 26 27 28 29 30 31 32 33 34 35 36 37 38 39 40 41 42 43 44 45 46 47 48 49 50
000
ASUS41 KRLX 261610
RWRRLX
West Virginia Regional Weather Roundup
National Weather Service Charleston WV
1200 PM EDT THU MAR 26 2015

Note: "fair" indicates few or no clouds below 12,000 feet with no
significant weather and/or obstructions to visibility.

WVZ003-261700-
Northern Panhandle of West Virginia

CITY           SKY/WX    TMP DP  RH WIND       PRES   REMARKS
WHEELING       RAIN      45  43  93 VRB5      29.75F FOG
$$

WVZ009-261700-
Northwest West Virginia

CITY           SKY/WX    TMP DP  RH WIND       PRES   REMARKS
PARKERSBURG    LGT RAIN  56  47  71 NW17G24   29.78S
$$

WVZ006-261700-
Western West Virginia

CITY           SKY/WX    TMP DP  RH WIND       PRES   REMARKS
HUNTINGTON     CLOUDY    68  53  58 SW14G26   29.75F
$$

WVZ015-261700-
West Central West Virginia

CITY           SKY/WX    TMP DP  RH WIND       PRES   REMARKS
CHARLESTON     PTSUNNY   70  50  49 SW17G36   29.76F
$$

WVZ022-031-261700-
North Central West Virginia

CITY           SKY/WX    TMP DP  RH WIND       PRES   REMARKS
CLARKSBURG     PTSUNNY   69  48  47 SW24G32   29.72F
MORGANTOWN     PTSUNNY   70  47  43 SW10G22   29.71F
$$

WVZ025-035-042-045-261700-
Southern West Virginia

CITY           SKY/WX    TMP DP  RH WIND       PRES   REMARKS
BECKLEY        PTSUNNY   66  45  46 W20G33    29.83F
LOGAN          CLOUDY    64  54  68 SW15G25   29.78S
BLUEFIELD      PTSUNNY   69  45  41 W16G26    29.86F
LEWISBURG      PTSUNNY   71  47  42 SW14G25   29.83F
$$

WVZ047-261700-
Northern Mountains of West Virginia

CITY           SKY/WX    TMP DP  RH WIND       PRES   REMARKS
ELKINS         PTSUNNY   71  45  39 SW16G25   29.76F
$$

WVZ052-261700-
Eastern Panhandle of West Virginia

CITY           SKY/WX    TMP DP  RH WIND       PRES   REMARKS
MARTINSBURG    MOSUNNY   61  45  55 VRB5      29.77F
PETERSBURG     PTSUNNY   73  44  35 SW9       29.74F
$$



USA.gov is the U.S. government's official web portal to all federal, state and local government web resources and services.